Regional Weather Roundup
Issued by NWS Mt. Holly, NJ

Home | Current Version | Previous Version | Text Only | Print | Product List | Glossary On
Versions: 1 2 3 4 5 6 7 8 9 10 11 12 13 14 15 16 17 18 19 20 21 22 23 24 25 26 27 28 29 30 31 32 33 34 35 36 37 38 39 40 41 42 43 44 45 46 47 48 49 50
000
ASUS41 KPHI 080012
RWRPHI

REGIONAL WEATHER ROUNDUP
NATIONAL WEATHER SERVICE MOUNT HOLLY NJ
800 PM EDT TUE JUL 07 2015

NOTE:  "FAIR" INDICATES FEW OR NO CLOUDS BELOW 12,000 FEET WITH NO
SIGNIFICANT WEATHER AND/OR OBSTRUCTIONS TO VISIBILITY.

 * = STATION DOES NOT REPORT PRECIPITATION (E.G. RAIN, SNOW, ETC.)
        OR FOG.

NJZ015>026-080100-
SOUTHERN NEW JERSEY

CITY           SKY/WX    TMP DP  RH WIND       PRES   REMARKS
POMONA         PTCLDY    83  73  72 S7        29.99R
6HR MIN TEMP:  83; 6HR MAX TEMP:  89;

RIO GRANDE*    CLEAR     82  70  65 SW8       30.00S
MILLVILLE      CLEAR     82  70  66 SW3       29.99R
WRIGHTSTOWN    CLEAR     82  69  66 SW7       29.94S
MOUNT HOLLY    CLEAR     83  68  60 SW5       29.96S
TRENTON        CLEAR     82  71  69 SW5       29.95S
6HR MIN TEMP:  77; 6HR MAX TEMP:  88; 6HR PCP:  0.11;


$$
NJZ001>014-080100-
NORTHERN NEW JERSEY

CITY           SKY/WX    TMP DP  RH WIND       PRES   REMARKS
SUSSEX         PTCLDY    76  69  79 SW3       29.96R
ANDOVER*         N/A     75  73  93 CALM      29.97R
MORRISTOWN     PTCLDY    86  73  66 SW6       29.95S HX  93
NEWARK         MOCLDY    82  70  66 SW8       29.94R
TETERBORO      PTCLDY    86  68  54 SW8       29.93R
CALDWELL       PTCLDY    83  69  62 CALM      29.94S
SOMERVILLE     CLEAR     83  69  62 CALM      29.93S
ALLAIRE*       CLEAR     84  70  61 SW7       29.97S
TOMS RIVER*    CLEAR     82  73  74 CALM      29.97S

$$
PAZ043-044-047-054-055-060>062-066>071-080100-
EASTERN PENNSYLVANIA

CITY           SKY/WX    TMP DP  RH WIND       PRES   REMARKS
PHILADELPHIA   PTCLDY    86  69  56 SW10      29.97R HX  90
6HR MIN TEMP:  86; 6HR MAX TEMP:  91;

NORTH PHILA    PTCLDY    86  65  49 SW12      29.97S
BLUE BELL      CLEAR     82  72  69 SW7       29.97S
DOYLESTOWN     CLEAR     82  67  60 SW5       29.97R
QUAKERTOWN*    CLEAR     81  72  74 SW6       29.98S
POTTSTOWN      CLEAR     82  70  66 S5        29.99R
LANCASTER      CLEAR     81  67  62 SW6       29.97S
COATESVILLE    CLEAR     81  73  78 CALM      30.00S
READING        CLEAR     82  67  60 S7        29.95S
6HR MIN TEMP:  82; 6HR MAX TEMP:  87; 6HR PCP: TRACE;

ALLENTOWN      CLEAR     81  69  67 SW9       29.96R
6HR MIN TEMP:  81; 6HR MAX TEMP:  87; 6HR PCP: TRACE;

MOUNT POCONO   CLEAR     75  67  76 SW7       30.02S
6HR MIN TEMP:  71; 6HR MAX TEMP:  77; 6HR PCP:  0.02;

HAZLETON       CLEAR     77  68  73 S3        30.04R
WILKES BARRE   CLEAR     81  66  60 S5        29.96R

$$
DEZALL-MDZ008-012-015-019-020-080100-
DELAWARE AND EASTERN MARYLAND

CITY           SKY/WX    TMP DP  RH WIND       PRES   REMARKS
WILMINGTON     PTCLDY    84  71  65 SW8       29.98S
6HR MIN TEMP:  84; 6HR MAX TEMP:  88;

DOVER          CLEAR     83  71  64 SW9       29.97S
GEORGETOWN     CLEAR     83  72  69 SW6       30.01R
6HR MIN TEMP:  83; 6HR MAX TEMP:  89;

EASTON         CLEAR    N/A N/A N/A SW6       30.03S
PATUXENT       PTCLDY    83  73  72 SW5       30.00S
OCEAN CITY     CLEAR     80  76  87 SW9       30.01S
WALLOPS ISLAND CLEAR     80  78  94 S10       30.03S
CAMBRIDGE      CLEAR     82  70  65 CALM      29.99F
SALISBURY      CLEAR     81  72  74 S3        30.01R

$$
PAZ001-021-NYZ056-072-MDZ011-DCZ001-080100-
OTHER NEARBY LOCATIONS

CITY           SKY/WX    TMP DP  RH WIND       PRES   REMARKS
HARRISBURG     PTCLDY    83  68  60 S3        29.95S
STATE COLLEGE  MOCLDY    79  66  65 SW7       29.97R
WILLIAMSPORT   PTCLDY    82  69  64 S9        29.91S
BINGHAMTON     CLEAR     77  66  68 SW9       29.96R
NEW YORK CITY  PTCLDY    81  70  69 VRB5      29.98R
BALTIMORE      PTCLDY    83  68  60 S5        29.97S
WASHINGTON DC  PTCLDY    86  72  62 S9        29.98S HX  92

$$



USA.gov is the U.S. government's official web portal to all federal, state and local government web resources and services.